Нау

Таджикистан     40°09′09″N   69°22′31″E
темп.,
°C
ветер,
м/с
пор.,
м/с
влажн.,
%
обл.,
%
осадки,
мм/ч
давл.,
гПа
погр.,
м
21 апреля, ср
ср2123:00+15с2269100 2.6 101250
02:00+14юз3576100 1.1 1013215
05:00+14з6980100 2.1 1014703
08:00+12зсз71083100 1.8 1017887
11:00+11зсз5672100 1.9 1020830
14:00+12з576491 0.0 10201080
17:00+13зюз565798 0.0 10201103
20:00+12юз356699 0.0 1021267
22 апреля, чт
чт2223:00+11з346926 0.0 1021107
02:00+8з34854 0.0 1023103
05:00+6зсз23880 0.0 102550
08:00+9зсз22720 0.0 1026301
11:00+15в13460 0.0 10251009
14:00+19в45270 0.0 10231500
17:00+20св23220 0.0 10231487
20:00+15сз33450 0.0 102430
23 апреля, пт
пт2323:00+13ююз22470 0.0 102412
02:00+12юз00515 0.0 102311
05:00+11в33490 0.0 102313
08:00+15в710460 0.0 1023562
11:00+20в88302 0.0 10221155
14:00+23в44215 0.0 10201570
17:00+23всв12205 0.0 10191589
20:00+18св22285 0.0 101912
24 апреля, сб
сб2423:00+16вюв22283 0.0 101812
02:00+15в223318 0.0 101813
05:00+14всв453895 0.0 101863
08:00+17в61039100 0.0 1019480
11:00+22в782673 0.0 1018966
14:00+24всв321993 0.0 10171190
17:00+24зсз2120100 0.0 1017808
20:00+19зсз1137100 0.0 101811
25 апреля, вс
вс2523:00+17з113795 0.0 101811
02:00+15в004117 0.0 101811
05:00+16в3335100 0.0 101919
08:00+19в5832100 0.0 1020342
11:00+24в6722100 0.0 1019898
14:00+27всв4416100 0.0 10171188
17:00+27ссз2218100 0.0 10161299
20:00+22з2229100 0.0 101714